When you browse on this site, cookies collect data to enhance your experience and personalize the content and advertising you see.
Visit our Privacy Policy to learn more. By continuing to use the site, you agree to this use of cookies and data.
  • In Netherlands
  • List of Countries
  • For 7 days
  • Water Temperature
  • Satellite Maps
  • Weather Map
  • Weather Widgets
  • user-avatar
    Login

    Hourly Weather Darłowo

    Today, 19 June, Wednesday

    Time Temperature Precipitation Wind Pressure Humidity
    00:00 +18°C° 0 mm 4 mps 761 mmHg 81%
    01:00 +17°C° 0 mm 4 mps 761 mmHg 82%
    02:00 +17°C° 0 mm 4 mps 761 mmHg 83%
    03:00 +17°C° 0 mm 4 mps 760 mmHg 83%
    04:00 +17°C° 0 mm 4 mps 760 mmHg 83%
    05:00 +18°C° 0 mm 4 mps 760 mmHg 81%
    06:00 +20°C° 0 mm 4 mps 760 mmHg 79%
    07:00 +21°C° 0 mm 4 mps 760 mmHg 76%
    08:00 +22°C° 0 mm 4 mps 760 mmHg 72%
    09:00 +25°C° 0 mm 4 mps 759 mmHg 68%
    10:00 +26°C° 0 mm 3 mps 759 mmHg 64%
    11:00 +26°C° 0 mm 3 mps 759 mmHg 63%
    12:00 +27°C° 0 mm 3 mps 759 mmHg 61%
    13:00 +28°C° 0 mm 2 mps 758 mmHg 59%
    14:00 +28°C° 0 mm 2 mps 758 mmHg 59%
    15:00 +28°C° 0 mm 2 mps 757 mmHg 58%
    16:00 +28°C° 0 mm 3 mps 757 mmHg 58%
    17:00 +27°C° 0 mm 3 mps 757 mmHg 64%
    18:00 +26°C° 0 mm 3 mps 756 mmHg 71%
    19:00 +25°C° 0 mm 3 mps 756 mmHg 77%
    20:00 +23°C° 0 mm 4 mps 756 mmHg 79%
    21:00 +22°C° 0 mm 4 mps 756 mmHg 82%
    22:00 +21°C° 0 mm 4 mps 756 mmHg 84%
    23:00 +20°C° 0.2 mm 4 mps 756 mmHg 86%

    Tomorrow, 20 June, Thursday

    Time Temperature Precipitation Wind Pressure Humidity
    00:00 +20°C° 0.2 mm 4 mps 756 mmHg 88%
    01:00 +19°C° 0.2 mm 4 mps 755 mmHg 91%
    02:00 +19°C° 0 mm 3 mps 755 mmHg 91%
    03:00 +19°C° 0 mm 3 mps 755 mmHg 91%
    04:00 +19°C° 0 mm 3 mps 755 mmHg 90%
    05:00 +20°C° 0 mm 3 mps 755 mmHg 88%
    06:00 +21°C° 0 mm 3 mps 755 mmHg 85%
    07:00 +22°C° 0 mm 3 mps 755 mmHg 83%
    08:00 +24°C° 0.2 mm 3 mps 755 mmHg 78%
    09:00 +26°C° 0.2 mm 3 mps 755 mmHg 74%
    10:00 +27°C° 0.2 mm 3 mps 755 mmHg 69%
    11:00 +26°C° 0.6 mm 4 mps 755 mmHg 71%
    12:00 +25°C° 0.6 mm 4 mps 755 mmHg 72%
    13:00 +23°C° 0.6 mm 4 mps 755 mmHg 74%
    14:00 +23°C° 0.4 mm 4 mps 755 mmHg 76%
    15:00 +23°C° 0.4 mm 4 mps 755 mmHg 77%
    16:00 +24°C° 0.4 mm 3 mps 755 mmHg 79%
    17:00 +22°C° 0.3 mm 3 mps 756 mmHg 81%
    18:00 +22°C° 0.3 mm 3 mps 756 mmHg 83%
    19:00 +21°C° 0.3 mm 2 mps 756 mmHg 86%
    20:00 +20°C° 0 mm 3 mps 756 mmHg 88%
    21:00 +19°C° 0 mm 3 mps 757 mmHg 90%
    22:00 +19°C° 0 mm 3 mps 757 mmHg 92%
    23:00 +18°C° 0 mm 3 mps 758 mmHg 92%

    Day after tomorrow, 21 June, Friday

    Time Temperature Precipitation Wind Pressure Humidity
    00:00 +18°C° 0 mm 3 mps 758 mmHg 93%
    01:00 +18°C° 0 mm 3 mps 758 mmHg 93%
    02:00 +17°C° 0 mm 3 mps 758 mmHg 94%
    03:00 +17°C° 0 mm 3 mps 758 mmHg 95%
    04:00 +17°C° 0 mm 3 mps 758 mmHg 96%
    05:00 +18°C° 0 mm 3 mps 759 mmHg 93%
    06:00 +18°C° 0 mm 4 mps 759 mmHg 90%
    07:00 +19°C° 0 mm 4 mps 760 mmHg 88%
    08:00 +19°C° 0 mm 4 mps 760 mmHg 85%
    09:00 +20°C° 0 mm 3 mps 761 mmHg 82%
    10:00 +20°C° 0 mm 3 mps 761 mmHg 79%
    11:00 +20°C° 0 mm 4 mps 761 mmHg 78%
    12:00 +20°C° 0 mm 4 mps 761 mmHg 78%
    13:00 +20°C° 0 mm 4 mps 761 mmHg 77%
    14:00 +20°C° 0 mm 4 mps 761 mmHg 77%
    15:00 +20°C° 0 mm 4 mps 761 mmHg 78%
    16:00 +19°C° 0 mm 4 mps 762 mmHg 79%
    17:00 +19°C° 0 mm 4 mps 762 mmHg 79%
    18:00 +18°C° 0 mm 4 mps 762 mmHg 80%
    19:00 +17°C° 0 mm 4 mps 762 mmHg 81%
    20:00 +15°C° 0 mm 4 mps 762 mmHg 84%
    21:00 +16°C° 0 mm 3 mps 763 mmHg 88%
    22:00 +14°C° 0 mm 3 mps 764 mmHg 91%
    23:00 +14°C° 0 mm 3 mps 764 mmHg 91%

    22 June, Saturday

    Time Temperature Precipitation Wind Pressure Humidity
    00:00 +14°C° 0 mm 3 mps 764 mmHg 91%
    01:00 +14°C° 0 mm 4 mps 764 mmHg 91%
    02:00 +14°C° 0 mm 3 mps 765 mmHg 90%
    03:00 +14°C° 0 mm 3 mps 765 mmHg 90%
    04:00 +14°C° 0 mm 3 mps 765 mmHg 89%
    05:00 +14°C° 0 mm 3 mps 766 mmHg 84%
    06:00 +16°C° 0 mm 3 mps 766 mmHg 80%
    07:00 +17°C° 0 mm 3 mps 766 mmHg 75%
    08:00 +17°C° 0 mm 3 mps 767 mmHg 71%
    09:00 +18°C° 0 mm 3 mps 767 mmHg 68%
    10:00 +18°C° 0 mm 3 mps 767 mmHg 64%
    11:00 +18°C° 0 mm 3 mps 767 mmHg 63%
    12:00 +19°C° 0 mm 3 mps 767 mmHg 63%
    13:00 +19°C° 0 mm 3 mps 767 mmHg 62%
    14:00 +18°C° 0 mm 4 mps 767 mmHg 63%
    15:00 +18°C° 0 mm 4 mps 767 mmHg 63%
    16:00 +17°C° 0 mm 4 mps 767 mmHg 64%
    17:00 +17°C° 0 mm 4 mps 767 mmHg 66%
    18:00 +16°C° 0 mm 3 mps 767 mmHg 69%
    19:00 +14°C° 0 mm 3 mps 767 mmHg 71%
    20:00 +14°C° 0 mm 2 mps 767 mmHg 74%
    21:00 +13°C° 0 mm 1 mps 767 mmHg 77%
    22:00 +12°C° 0 mm 1 mps 767 mmHg 80%
    23:00 +12°C° 0 mm 1 mps 767 mmHg 80%

    23 June, Sunday

    Time Temperature Precipitation Wind Pressure Humidity
    00:00 +12°C° 0 mm 1 mps 767 mmHg 81%
    01:00 +12°C° 0 mm 1 mps 767 mmHg 82%
    02:00 +12°C° 0 mm 1 mps 767 mmHg 83%
    03:00 +12°C° 0 mm 1 mps 767 mmHg 84%
    04:00 +11°C° 0 mm 1 mps 767 mmHg 86%
    05:00 +13°C° 0 mm 2 mps 768 mmHg 82%
    06:00 +15°C° 0 mm 2 mps 768 mmHg 79%
    07:00 +17°C° 0 mm 2 mps 768 mmHg 76%
    08:00 +17°C° 0 mm 3 mps 768 mmHg 72%
    09:00 +18°C° 0 mm 3 mps 768 mmHg 68%
    10:00 +19°C° 0 mm 4 mps 768 mmHg 64%
    11:00 +20°C° 0 mm 4 mps 768 mmHg 65%
    12:00 +20°C° 0 mm 5 mps 768 mmHg 65%
    13:00 +20°C° 0 mm 5 mps 768 mmHg 65%
    14:00 +20°C° 0 mm 5 mps 768 mmHg 66%
    15:00 +19°C° 0 mm 5 mps 768 mmHg 67%
    16:00 +19°C° 0 mm 5 mps 768 mmHg 67%
    17:00 +19°C° 0 mm 5 mps 768 mmHg 70%
    18:00 +18°C° 0 mm 4 mps 768 mmHg 73%
    19:00 +17°C° 0 mm 3 mps 768 mmHg 77%
    20:00 +16°C° 0 mm 3 mps 768 mmHg 79%
    21:00 +15°C° 0 mm 2 mps 769 mmHg 81%
    22:00 +14°C° 0 mm 2 mps 769 mmHg 83%
    23:00 +13°C° 0 mm 2 mps 769 mmHg 84%

    24 June, Monday

    Time Temperature Precipitation Wind Pressure Humidity
    00:00 +13°C° 0 mm 1 mps 769 mmHg 84%
    01:00 +12°C° 0 mm 1 mps 769 mmHg 85%
    02:00 +12°C° 0 mm 1 mps 769 mmHg 85%
    03:00 +12°C° 0 mm 1 mps 769 mmHg 84%
    04:00 +12°C° 0 mm 1 mps 769 mmHg 84%
    05:00 +13°C° 0 mm 1 mps 769 mmHg 79%
    06:00 +15°C° 0 mm 1 mps 770 mmHg 74%
    07:00 +16°C° 0 mm 2 mps 770 mmHg 69%
    08:00 +19°C° 0 mm 1 mps 770 mmHg 63%
    09:00 +20°C° 0 mm 1 mps 770 mmHg 57%
    10:00 +22°C° 0 mm 1 mps 770 mmHg 51%
    11:00 +21°C° 0 mm 2 mps 770 mmHg 52%
    12:00 +21°C° 0 mm 2 mps 770 mmHg 54%
    13:00 +21°C° 0 mm 3 mps 770 mmHg 55%
    14:00 +21°C° 0 mm 4 mps 770 mmHg 58%
    15:00 +20°C° 0 mm 4 mps 770 mmHg 61%
    16:00 +20°C° 0 mm 4 mps 770 mmHg 64%
    17:00 +19°C° 0 mm 4 mps 770 mmHg 68%
    18:00 +19°C° 0 mm 4 mps 770 mmHg 71%
    19:00 +18°C° 0 mm 3 mps 770 mmHg 74%
    20:00 +17°C° 0 mm 3 mps 770 mmHg 76%
    21:00 +16°C° 0 mm 3 mps 770 mmHg 77%
    22:00 +14°C° 0 mm 3 mps 770 mmHg 79%
    23:00 +14°C° 0 mm 3 mps 770 mmHg 77%
    Show more